Location: Marcé
(47.5801°N, 0.3280°W)
Time: 09:05:05
(UTC+01:00)

Explorer 7 - Pass Details

Date: 05 December 2021
Orbit: 483 x 674 km, 50.3° (Epoch: 24 January)

Event Time Altitude Azimuth Distance (km) Brightness Sun altitude
Rises 12:59:44 0° 283° (WNW) 2,608 10.2 20.0°
Reaches altitude 10° 13:02:50 10° 256° (WSW) 1,691 9.6 19.9°
Maximum altitude 13:04:46 14° 225° (SW) 1,464 9.9 19.9°
Drops below altitude 10° 13:06:42 10° 194° (SSW) 1,663 11.3 19.9°
Sets 13:09:43 0° 168° (SSE) 2,530 11.6 19.9°
